Location: Osnabrueck
(52.2800°N, 7.9700°E)
Time: 02:04:36
(UTC+02:00)

ISS - Visible Passes

Search period start: 24 August 2019 00:00
Search period end: 03 September 2019 00:00
Orbit: 410 x 421 km, 51.6° (Epoch: 24 August)

Date Brightness Start Highest point End Pass type
(mag) Time Alt. Az. Time Alt. Az. Time Alt. Az.
28 Aug -0.8 05:39:32 10° SE 05:39:44 10° SE 05:39:55 10° SE visible
30 Aug -1.7 05:35:49 10° SSW 05:38:20 20° SE 05:40:52 10° E visible
31 Aug -1.4 04:48:24 12° SSE 04:49:41 14° SE 04:51:30 10° ESE visible
01 Sep -2.7 05:34:25 13° SW 05:37:02 35° SSE 05:40:09 10° E visible
02 Sep -2.3 04:47:30 23° S 04:48:18 26° SSE 04:51:09 10° E visible
